Hourly Data Report for January 17, 2013

TERRACE A
BRITISH COLUMBIA

54°28'07.000" N
128°34'42.000" W
217.30 m
1068134
71951
YXT

Download Data

Hourly Data (January 2013)
Hourly Data Report for January 17, 2013
TIME
LST
Temp Definition
°C
Dew Point Definition
°C
Rel Hum Definition
%
Precip. Amount Definition
mm

Wind Dir Definition
10's deg

Wind Spd Definition
km/h
Visibility Definition
km
Stn Press Definition
kPa
Hmdx Definition


Wind Chill Definition


Weather Definition


00:00 4.8 3.9 94   17 54 9.7 99.66     Rain Showers, Fog
01:00 4.6 3.7 94   18 49 9.7 99.59     Rain Showers, Fog
02:00 4.6 3.4 92   18 34 12.9 99.55     Rain Showers
03:00 4.7 3.1 89   18 34 16.1 99.45     LegendNANA
04:00 4.8 2.8 87   18 41 24.1 99.37     Mostly Cloudy
05:00 4.9 2.4 84   17 42 24.1 99.23     LegendNANA
06:00 4.9 1.9 81   16 47 24.1 99.12     Rain Showers
07:00 4.8 1.8 81   16 54 24.1 99.01     Rain Showers
08:00 4.0 2.2 88   17 44 16.1 99.00     Rain Showers
09:00 3.4 2.5 94   16 36 16.1 99.10     Rain Showers
10:00 3.6 2.1 90   17 48 16.1 98.95     Rain Showers
11:00 3.9 1.9 87   17 57 19.3 98.97     Rain Showers
12:00 4.0 2.0 87   18 50 24.1 99.00     Rain Showers
13:00 4.0 2.0 87   18 46 19.3 98.99     Rain Showers
14:00 4.2 2.4 88   18 55 24.1 98.97     Rain Showers
15:00 4.0 2.5 90   18 48 24.1 98.95     Rain Showers
16:00 4.1 2.5 89   17 49 24.1 98.93     Rain Showers
17:00 4.1 2.3 88   17 46 24.1 98.87     Rain Showers
18:00 3.9 2.3 89   17 37 24.1 98.89     Rain Showers
19:00 3.7 1.9 88   19 36 24.1 98.83     Rain Showers
20:00 3.8 2.3 90   18 43 24.1 98.85     Rain Showers
21:00 3.9 2.7 92   18 41 24.1 98.83     Rain Showers
22:00 3.9 3.0 94   19 34 16.1 98.86     Rain Showers
23:00 4.0 3.4 96   19 30 16.1 98.85     Rain

Notes on Data Quality.

Legend

  • E = Estimated
  • M = Missing
  • NA = Not Available*
  • [empty] = Indicates an unobserved value
Date modified: